Tracking 18840 objects as of 17-November-2017
HD Live streaming from Space Station
objects crossing your sky now

FENGYUN 1C DEB

Track FENGYUN 1C DEB now!
10-day predictions


NORAD ID: 30925
Int'l Code: 1999-025AZP
Perigee: 810.4 km
Apogee: 870.9 km
Inclination: 98.9 °
Period: 101.6 minutes
Semi major axis: 7211 km
RCS: 0.0096 m2 (small)
Launch date: May 10, 1999
Source: People's Republic of China (PRC)
Launch site: Taiyaun Space Center, China (TSC)

Note: This is SATELLITE DEBRIS
aabbcc
Your satellite tracking list
Your tracking list is empty




NASA's NSSDC Master Catalog

Two Line Element Set (TLE):
1 30925U 99025AZP 17320.74187623  .00001034  00000-0  52639-3 0  9991
2 30925  98.9292  23.2449 0041902  97.5259  29.8194 14.17592246551888
Source of the keplerian elements: AFSPC